Torna al catalogo

ATLAS 5 CENTAUR DEB

AttivoHEO
NORAD 43984·DEBRIS·🇺🇸 United States

Lanciato Sep 17, 2014 da Cape Canaveral Space Force Station

Loading…

Prossimi Passaggi (prossime 24 ore)

TLE

AggiornatoSource: Space-Track

Epoca: Sep 12, 2026, 02:33 UTC

1 43984U 14055AP  26255.10642859 -.00000018  00000-0  00000-0 0  9998
2 43984  21.1569  83.2473 5107627 271.5461  33.1313  1.91673996 56090

Traccia ATLAS 5 CENTAUR DEB in tempo reale con AllMySat

Download on the App Store